START_TIME,STEP,MOV.,M15,t_acc.,M20,t_acc.
1981-08-30 09:00:44.450 ,6,1,0.,24.0,0.,24.0
1981-08-30 09:01:08.450 ,7,1,1.,24.0,0.,24.0
1981-08-30 09:01:32.450 ,7,1,0.,24.0,0.,24.0
1981-08-30 09:01:56.450 ,6,1,0.,24.0,0.,24.0
1981-08-30 09:02:20.450 ,5,1,0.,24.0,0.,24.0
1981-08-30 09:02:44.450 ,4,1,0.,24.0,0.,24.0
1981-08-30 09:03:08.450 ,3,1,0.,24.0,0.,24.0
1981-08-30 09:03:32.450 ,2,1,0.,24.0,0.,24.0
1981-08-30 09:03:56.450 ,1,1,0.,24.0,0.,24.0
1981-08-30 09:04:20.450 ,0,1,0.,24.0,0.,24.0
1981-08-30 09:04:44.450 ,0,1,0.,24.0,0.,24.0
1981-08-30 09:05:08.450 ,1,1,0.,24.0,0.,24.0
1981-08-30 09:05:32.450 ,2,1,0.,24.0,0.,24.0
1981-08-30 09:05:56.450 ,3,1,0.,24.0,0.,24.0
1981-08-30 09:06:20.450 ,3,0,0.,24.0,0.,24.0
1981-08-30 09:06:44.450 ,4,1,0.,24.0,0.,24.0
1981-08-30 09:07:08.450 ,4,0,0.,24.0,0.,24.0
1981-08-30 09:07:32.450 ,5,1,0.,24.0,0.,24.0
1981-08-30 09:07:56.450 ,5,0,0.,24.0,0.,24.0
1981-08-30 09:08:20.450 ,6,1,0.,24.0,0.,24.0
1981-08-30 09:08:44.450 ,6,0,0.,24.0,0.,24.0
1981-08-30 09:09:08.450 ,7,1,0.,24.0,0.,24.0
1981-08-30 09:09:32.450 ,7,0,0.,24.0,0.,24.0
1981-08-30 09:09:56.450 ,7,1,0.,24.0,0.,24.0
1981-08-30 09:10:20.450 ,7,0,0.,24.0,0.,24.0
1981-08-30 09:10:44.450 ,6,1,0.,24.0,0.,24.0
1981-08-30 09:11:08.450 ,6,0,0.,24.0,0.,24.0
1981-08-30 09:11:32.450 ,5,1,0.,24.0,0.,24.0
1981-08-30 09:11:56.450 ,5,0,0.,24.0,0.,24.0
1981-08-30 09:12:20.450 ,4,1,0.,24.0,0.,24.0
1981-08-30 09:12:44.450 ,4,0,0.,24.0,0.,24.0
1981-08-30 09:13:08.450 ,3,1,0.,24.0,0.,24.0
1981-08-30 09:13:32.450 ,3,0,0.,24.0,0.,24.0
1981-08-30 09:13:56.450 ,2,1,0.,24.0,0.,24.0
1981-08-30 09:14:20.450 ,2,0,0.,24.0,0.,24.0
1981-08-30 09:14:44.450 ,1,1,0.,24.0,0.,24.0
1981-08-30 09:15:08.450 ,1,0,0.,24.0,0.,24.0
1981-08-30 09:15:32.450 ,0,1,0.,24.0,0.,24.0
1981-08-30 09:15:56.450 ,0,0,0.,24.0,0.,24.0
1981-08-30 09:16:20.450 ,0,1,0.,24.0,0.,24.0
1981-08-30 09:16:44.450 ,0,0,0.,24.0,0.,24.0
1981-08-30 09:17:08.440 ,1,1,0.,24.0,0.,24.0
1981-08-30 09:17:32.450 ,1,0,0.,24.0,0.,24.0
1981-08-30 09:17:56.450 ,2,1,0.,24.0,0.,24.0
1981-08-30 09:18:20.450 ,2,0,0.,24.0,0.,24.0
1981-08-30 09:18:44.450 ,3,1,0.,24.0,0.,24.0
1981-08-30 09:19:08.450 ,4,1,0.,24.0,0.,24.0
1981-08-30 09:19:32.450 ,5,1,0.,24.0,0.,24.0
1981-08-30 09:19:56.450 ,6,1,0.,24.0,0.,24.0
1981-08-30 09:20:20.450 ,7,1,0.,24.0,0.,24.0
1981-08-30 09:20:44.450 ,7,1,0.,24.0,0.,24.0
1981-08-30 09:21:08.450 ,6,1,0.,24.0,0.,24.0
1981-08-30 09:21:32.450 ,5,1,0.,24.0,0.,24.0
1981-08-30 09:21:56.450 ,4,1,0.,24.0,0.,24.0
1981-08-30 09:22:20.450 ,3,1,0.,24.0,0.,24.0
1981-08-30 09:22:44.450 ,2,1,0.,24.0,0.,24.0
1981-08-30 09:23:08.450 ,1,1,0.,24.0,0.,24.0
1981-08-30 09:23:32.450 ,0,1,0.,24.0,0.,24.0
1981-08-30 09:23:56.450 ,0,1,0.,24.0,0.,24.0
1981-08-30 09:24:20.450 ,1,1,0.,24.0,0.,24.0
1981-08-30 09:24:44.450 ,2,1,0.,24.0,0.,24.0
1981-08-30 09:25:08.450 ,3,1,0.,24.0,0.,24.0
1981-08-30 09:25:32.450 ,3,0,0.,24.0,0.,24.0
1981-08-30 09:25:56.450 ,4,1,0.,24.0,0.,24.0
1981-08-30 09:26:20.450 ,4,0,0.,24.0,0.,24.0
1981-08-30 09:26:44.450 ,5,1,0.,24.0,0.,24.0
1981-08-30 09:27:08.450 ,5,0,0.,24.0,0.,24.0
1981-08-30 09:27:32.450 ,6,1,0.,24.0,0.,24.0
1981-08-30 09:27:56.450 ,6,0,0.,24.0,0.,24.0
1981-08-30 09:28:20.450 ,7,1,0.,24.0,0.,24.0
1981-08-30 09:28:44.450 ,7,0,0.,24.0,0.,24.0
1981-08-30 09:29:08.450 ,7,1,0.,24.0,0.,24.0
1981-08-30 09:29:32.450 ,7,0,0.,24.0,0.,24.0
1981-08-30 09:29:56.450 ,6,1,0.,24.0,0.,24.0
1981-08-30 09:30:20.450 ,6,0,0.,24.0,0.,24.0
1981-08-30 09:30:44.450 ,5,1,0.,24.0,0.,24.0
1981-08-30 09:31:08.450 ,5,0,0.,24.0,0.,24.0
1981-08-30 09:31:32.450 ,4,1,0.,24.0,0.,24.0
1981-08-30 09:31:56.450 ,4,0,0.,24.0,0.,24.0
1981-08-30 09:32:20.450 ,3,1,0.,24.0,0.,24.0
1981-08-30 09:32:44.450 ,3,0,0.,24.0,0.,24.0
1981-08-30 09:33:08.450 ,2,1,0.,24.0,0.,24.0
1981-08-30 09:33:32.450 ,2,0,0.,24.0,0.,24.0
1981-08-30 09:33:56.440 ,1,1,0.,24.0,0.,24.0
1981-08-30 09:34:20.440 ,1,0,0.,24.0,0.,24.0
1981-08-30 09:34:44.440 ,0,1,0.,24.0,0.,24.0
1981-08-30 09:35:08.440 ,0,0,0.,24.0,0.,24.0
1981-08-30 09:35:32.440 ,0,1,0.,24.0,0.,24.0
1981-08-30 09:35:56.440 ,0,0,0.,24.0,0.,24.0
1981-08-30 09:36:20.440 ,1,1,0.,24.0,0.,24.0
1981-08-30 09:36:44.440 ,1,0,0.,24.0,0.,24.0
1981-08-30 09:37:08.440 ,2,1,0.,24.0,0.,24.0
1981-08-30 09:37:32.440 ,2,0,0.,24.0,0.,24.0
1981-08-30 09:37:56.440 ,3,1,0.,24.0,0.,24.0
1981-08-30 09:38:20.440 ,4,1,0.,24.0,0.,24.0
1981-08-30 09:38:44.440 ,5,1,0.,24.0,0.,24.0
1981-08-30 09:39:08.440 ,6,1,0.,24.0,0.,24.0
1981-08-30 09:39:32.440 ,7,1,0.,24.0,0.,24.0
1981-08-30 09:39:56.440 ,7,1,0.,24.0,0.,24.0
1981-08-30 09:40:20.440 ,6,1,0.,24.0,0.,24.0
1981-08-30 09:40:44.440 ,5,1,0.,24.0,0.,24.0
1981-08-30 09:41:08.440 ,4,1,0.,24.0,0.,24.0
1981-08-30 09:41:32.440 ,3,1,0.,24.0,0.,24.0
1981-08-30 09:41:56.440 ,2,1,0.,24.0,0.,24.0
1981-08-30 09:42:20.440 ,1,1,0.,24.0,0.,24.0
1981-08-30 09:42:44.440 ,0,1,0.,24.0,0.,24.0
1981-08-30 09:43:08.440 ,0,1,0.,24.0,0.,24.0
1981-08-30 09:43:32.440 ,1,1,0.,24.0,0.,24.0
1981-08-30 09:43:56.440 ,2,1,0.,24.0,0.,24.0
1981-08-30 09:44:20.440 ,3,1,0.,24.0,0.,24.0
1981-08-30 09:44:44.440 ,3,0,0.,24.0,0.,24.0
1981-08-30 09:45:08.440 ,4,1,0.,24.0,0.,24.0
1981-08-30 09:45:32.440 ,4,0,0.,24.0,0.,24.0
1981-08-30 09:45:56.440 ,5,1,0.,24.0,0.,24.0
1981-08-30 09:46:20.440 ,5,0,0.,24.0,0.,24.0
1981-08-30 09:46:44.440 ,6,1,0.,24.0,0.,24.0
1981-08-30 09:47:08.440 ,6,0,0.,24.0,0.,24.0
1981-08-30 09:47:32.440 ,7,1,0.,24.0,0.,24.0
1981-08-30 09:47:56.440 ,7,0,0.,24.0,0.,24.0
1981-08-30 09:48:20.440 ,7,1,0.,24.0,0.,24.0
1981-08-30 09:48:44.440 ,7,0,0.,24.0,0.,24.0
1981-08-30 09:49:08.440 ,6,1,0.,24.0,0.,24.0
1981-08-30 09:49:32.440 ,6,0,0.,24.0,0.,24.0
1981-08-30 09:49:56.440 ,5,1,0.,24.0,0.,24.0
1981-08-30 09:50:20.440 ,5,0,0.,24.0,0.,24.0
1981-08-30 09:50:44.440 ,4,1,0.,24.0,0.,24.0
1981-08-30 09:51:08.440 ,4,0,0.,24.0,0.,24.0
1981-08-30 09:51:32.440 ,3,1,0.,24.0,0.,24.0
1981-08-30 09:51:56.440 ,3,0,0.,24.0,0.,24.0
1981-08-30 09:52:20.440 ,2,1,0.,24.0,0.,24.0
1981-08-30 09:52:44.440 ,2,0,0.,24.0,0.,24.0
1981-08-30 09:53:08.440 ,1,1,0.,24.0,0.,24.0
1981-08-30 09:53:32.440 ,1,0,0.,24.0,0.,24.0
1981-08-30 09:53:56.440 ,0,1,0.,24.0,0.,24.0
1981-08-30 09:54:20.440 ,0,0,0.,24.0,0.,24.0
1981-08-30 09:54:44.440 ,0,1,0.,24.0,0.,24.0
1981-08-30 09:55:08.440 ,0,0,0.,24.0,0.,24.0
1981-08-30 09:55:32.440 ,1,1,0.,24.0,0.,24.0
1981-08-30 09:55:56.440 ,1,0,0.,24.0,0.,24.0
1981-08-30 09:56:20.440 ,2,1,0.,24.0,0.,24.0
1981-08-30 09:56:44.440 ,2,0,0.,24.0,0.,24.0
1981-08-30 09:57:08.440 ,3,1,0.,24.0,0.,24.0
1981-08-30 09:57:32.440 ,4,1,0.,24.0,0.,24.0
1981-08-30 09:57:56.440 ,5,1,0.,24.0,0.,24.0
1981-08-30 09:58:20.440 ,6,1,0.,24.0,0.,24.0
1981-08-30 09:58:44.440 ,7,1,0.,24.0,0.,24.0
1981-08-30 09:59:08.440 ,7,1,0.,24.0,0.,24.0
1981-08-30 09:59:32.440 ,6,1,0.,24.0,0.,24.0
1981-08-30 09:59:56.440 ,5,1,0.,24.0,0.,24.0
1981-08-30 10:00:20.440 ,4,1,0.,24.0,0.,24.0
1981-08-30 10:00:44.440 ,3,1,0.,24.0,0.,24.0
1981-08-30 10:01:08.440 ,2,1,0.,24.0,0.,24.0
1981-08-30 10:01:32.440 ,1,1,0.,24.0,0.,24.0
1981-08-30 10:01:56.440 ,0,1,0.,24.0,0.,24.0
1981-08-30 10:02:20.440 ,0,1,0.,24.0,0.,24.0
1981-08-30 10:02:44.440 ,1,1,0.,24.0,0.,24.0
1981-08-30 10:03:08.440 ,2,1,0.,24.0,0.,24.0
1981-08-30 10:03:32.440 ,3,1,0.,24.0,0.,24.0
1981-08-30 10:03:56.440 ,3,0,0.,24.0,0.,24.0
1981-08-30 10:04:20.440 ,4,1,0.,24.0,0.,24.0
1981-08-30 10:04:44.440 ,4,0,0.,24.0,0.,24.0
1981-08-30 10:05:08.440 ,5,1,0.,24.0,0.,24.0
1981-08-30 10:05:32.440 ,5,0,0.,24.0,0.,24.0
1981-08-30 10:05:56.440 ,6,1,0.,24.0,0.,24.0
1981-08-30 10:06:20.440 ,6,0,0.,24.0,0.,24.0
1981-08-30 10:06:44.440 ,7,1,0.,24.0,0.,24.0
1981-08-30 10:07:08.440 ,7,0,0.,24.0,0.,24.0
1981-08-30 10:07:32.440 ,7,1,0.,24.0,0.,24.0
1981-08-30 10:07:56.440 ,7,0,0.,24.0,0.,24.0
1981-08-30 10:08:20.440 ,6,1,0.,24.0,0.,24.0
1981-08-30 10:08:44.440 ,6,0,0.,24.0,0.,24.0
1981-08-30 10:09:08.440 ,5,1,0.,24.0,0.,24.0
1981-08-30 10:09:32.440 ,5,0,0.,24.0,0.,24.0
1981-08-30 10:09:56.440 ,4,1,0.,24.0,0.,24.0
1981-08-30 10:10:20.440 ,4,0,0.,24.0,0.,24.0
1981-08-30 10:10:44.440 ,3,1,0.,24.0,0.,24.0
1981-08-30 10:11:08.440 ,3,0,0.,24.0,0.,24.0
1981-08-30 10:11:32.440 ,2,1,0.,24.0,0.,24.0
1981-08-30 10:11:56.440 ,2,0,0.,24.0,0.,24.0
1981-08-30 10:12:20.440 ,1,1,0.,24.0,0.,24.0
1981-08-30 10:12:44.440 ,0,0,0.,24.0,0.,24.0
1981-08-30 10:16:42.040 ,0,0,,0,,0
1981-08-30 10:16:44.440 ,0,0,0.,24.0,0.,24.0
1981-08-30 10:17:08.440 ,5,1,0.,24.0,0.,24.0
1981-08-30 10:17:32.440 ,6,1,0.,24.0,0.,24.0
1981-08-30 10:17:56.440 ,7,1,0.,24.0,0.,24.0
1981-08-30 10:18:20.440 ,7,1,0.,24.0,0.,24.0
1981-08-30 10:18:44.440 ,6,1,0.,24.0,0.,24.0
1981-08-30 10:19:08.440 ,5,1,0.,24.0,0.,24.0
1981-08-30 10:19:32.440 ,4,1,0.,24.0,0.,24.0
1981-08-30 10:19:56.440 ,3,1,0.,24.0,0.,24.0
1981-08-30 10:20:20.440 ,2,1,0.,24.0,0.,24.0
1981-08-30 10:20:44.440 ,1,1,0.,24.0,0.,24.0
1981-08-30 10:21:08.440 ,0,1,0.,24.0,0.,24.0
1981-08-30 10:21:32.440 ,0,1,0.,24.0,0.,24.0
1981-08-30 10:21:56.440 ,1,1,0.,24.0,0.,24.0
1981-08-30 10:22:20.440 ,2,1,0.,24.0,0.,24.0
1981-08-30 10:22:44.440 ,3,1,0.,24.0,0.,24.0
1981-08-30 10:23:08.440 ,3,0,0.,24.0,0.,24.0
1981-08-30 10:23:32.440 ,4,1,0.,24.0,0.,24.0
1981-08-30 10:23:56.440 ,4,0,0.,24.0,0.,24.0
1981-08-30 10:24:20.440 ,5,1,0.,24.0,0.,24.0
1981-08-30 10:24:44.440 ,5,0,0.,24.0,0.,24.0
1981-08-30 10:25:08.440 ,6,1,0.,24.0,0.,24.0
1981-08-30 10:25:32.440 ,6,0,0.,24.0,0.,24.0
1981-08-30 10:25:56.440 ,7,1,0.,24.0,0.,24.0
1981-08-30 10:26:20.440 ,7,0,0.,24.0,0.,24.0
1981-08-30 10:26:44.440 ,7,1,0.,24.0,0.,24.0
1981-08-30 10:27:08.440 ,7,0,0.,24.0,0.,24.0
1981-08-30 10:27:32.440 ,6,1,0.,24.0,0.,24.0
1981-08-30 10:27:56.440 ,6,0,0.,24.0,0.,24.0
1981-08-30 10:28:20.440 ,5,1,0.,24.0,0.,24.0
1981-08-30 10:28:44.440 ,5,0,0.,24.0,0.,24.0
1981-08-30 10:29:08.440 ,4,1,0.,24.0,0.,24.0
1981-08-30 10:29:32.440 ,4,0,0.,24.0,0.,24.0
1981-08-30 10:29:56.440 ,3,1,0.,24.0,0.,24.0
1981-08-30 10:30:20.440 ,3,0,0.,24.0,0.,24.0
1981-08-30 10:30:44.440 ,2,1,0.,24.0,0.,24.0
1981-08-30 10:31:08.440 ,2,0,0.,24.0,0.,24.0
1981-08-30 10:31:32.440 ,1,1,0.,24.0,0.,24.0
1981-08-30 10:31:56.440 ,1,0,0.,24.0,0.,24.0
1981-08-30 10:32:20.440 ,0,1,0.,24.0,0.,24.0
1981-08-30 10:32:44.440 ,0,0,0.,24.0,0.,24.0
1981-08-30 10:33:08.440 ,0,1,0.,24.0,0.,24.0
1981-08-30 10:33:32.440 ,0,0,0.,24.0,0.,24.0
1981-08-30 10:33:56.440 ,1,1,0.,24.0,0.,24.0
1981-08-30 10:34:20.440 ,1,0,0.,24.0,0.,24.0
1981-08-30 10:34:44.440 ,2,1,0.,24.0,0.,24.0
1981-08-30 10:35:08.440 ,2,0,0.,24.0,0.,24.0
1981-08-30 10:35:32.440 ,3,1,0.,24.0,0.,24.0
1981-08-30 10:35:56.440 ,4,1,0.,24.0,0.,24.0
1981-08-30 10:36:20.440 ,5,1,0.,24.0,0.,24.0
1981-08-30 10:36:44.440 ,6,1,0.,24.0,0.,24.0
1981-08-30 10:37:08.440 ,7,1,0.,24.0,0.,24.0
1981-08-30 10:37:32.440 ,7,1,0.,24.0,0.,24.0
1981-08-30 10:37:56.440 ,6,1,0.,24.0,0.,24.0
1981-08-30 10:38:20.440 ,5,1,0.,24.0,0.,24.0
1981-08-30 10:38:44.440 ,4,1,0.,24.0,0.,24.0
1981-08-30 10:39:08.440 ,3,1,0.,24.0,0.,24.0
1981-08-30 10:39:32.440 ,2,1,0.,24.0,0.,24.0
1981-08-30 10:39:56.440 ,1,1,0.,24.0,0.,24.0
1981-08-30 10:40:20.440 ,0,1,0.,24.0,0.,24.0
1981-08-30 10:40:44.440 ,0,1,0.,24.0,0.,24.0
1981-08-30 10:41:08.440 ,1,1,0.,24.0,0.,24.0
1981-08-30 10:41:32.440 ,2,1,0.,24.0,0.,24.0
1981-08-30 10:41:56.440 ,3,1,0.,24.0,0.,24.0
1981-08-30 10:42:20.440 ,3,0,0.,24.0,0.,24.0
1981-08-30 10:42:44.440 ,4,1,0.,24.0,0.,24.0
1981-08-30 10:43:08.440 ,4,0,0.,24.0,0.,24.0
1981-08-30 10:43:32.440 ,5,1,0.,24.0,0.,24.0
1981-08-30 10:43:56.440 ,5,0,0.,24.0,0.,24.0
1981-08-30 10:44:20.440 ,6,1,0.,24.0,0.,24.0
1981-08-30 10:44:44.440 ,6,0,0.,24.0,0.,24.0
1981-08-30 10:45:08.440 ,7,1,0.,24.0,0.,24.0
1981-08-30 10:45:32.440 ,7,0,0.,24.0,0.,24.0
1981-08-30 10:45:56.440 ,7,1,0.,24.0,0.,24.0
1981-08-30 10:46:20.440 ,7,0,0.,24.0,0.,24.0
1981-08-30 10:46:44.440 ,6,1,0.,24.0,0.,24.0
1981-08-30 10:47:08.440 ,6,0,0.,24.0,0.,24.0
1981-08-30 10:47:32.440 ,5,1,0.,24.0,0.,24.0
1981-08-30 10:47:56.440 ,5,0,0.,24.0,0.,24.0
1981-08-30 10:48:20.440 ,4,1,0.,24.0,0.,24.0
1981-08-30 10:48:44.440 ,4,0,0.,24.0,0.,24.0
1981-08-30 10:49:08.440 ,3,1,0.,24.0,0.,24.0
1981-08-30 10:49:32.440 ,3,0,0.,24.0,0.,24.0
1981-08-30 10:49:56.440 ,2,1,0.,24.0,0.,24.0
1981-08-30 10:50:20.440 ,2,0,0.,24.0,0.,24.0
1981-08-30 10:50:45.040 ,1,1,0.,24.0,0.,24.0
1981-08-30 10:51:08.440 ,1,0,0.,24.0,0.,24.0
1981-08-30 10:51:32.440 ,0,1,0.,24.0,0.,24.0
1981-08-30 10:51:56.440 ,0,0,0.,24.0,0.,24.0
1981-08-30 10:52:20.440 ,0,1,0.,24.0,0.,24.0
1981-08-30 10:52:44.440 ,0,0,0.,24.0,0.,24.0
1981-08-30 10:53:08.440 ,1,1,0.,24.0,0.,24.0
1981-08-30 10:53:32.440 ,1,0,0.,24.0,0.,24.0
1981-08-30 10:53:56.440 ,2,1,0.,24.0,0.,24.0
1981-08-30 10:54:20.440 ,2,0,0.,24.0,0.,24.0
1981-08-30 10:54:44.440 ,3,1,0.,24.0,0.,24.0
1981-08-30 10:55:08.440 ,4,1,0.,24.0,0.,24.0
1981-08-30 10:55:32.440 ,5,1,0.,24.0,0.,24.0
1981-08-30 10:55:56.440 ,6,1,0.,24.0,0.,24.0
1981-08-30 10:56:20.440 ,7,1,0.,24.0,0.,24.0
1981-08-30 10:56:44.440 ,7,1,0.,24.0,0.,24.0
1981-08-30 10:57:08.440 ,6,1,0.,24.0,0.,24.0
1981-08-30 10:57:32.440 ,5,1,0.,24.0,0.,24.0
1981-08-30 10:57:56.440 ,4,1,0.,24.0,0.,24.0
1981-08-30 10:58:20.440 ,3,1,0.,24.0,0.,24.0
1981-08-30 10:58:44.440 ,2,1,0.,24.0,0.,24.0
1981-08-30 10:59:08.440 ,1,1,0.,24.0,0.,24.0
1981-08-30 10:59:32.440 ,0,1,0.,24.0,0.,24.0
1981-08-30 10:59:56.440 ,0,1,0.,24.0,0.,24.0
1981-08-30 11:00:20.440 ,1,1,0.,24.0,0.,24.0
1981-08-30 11:00:44.440 ,2,1,0.,24.0,0.,24.0
1981-08-30 11:01:08.440 ,3,1,0.,24.0,0.,24.0
1981-08-30 11:01:32.440 ,3,0,0.,24.0,0.,24.0
1981-08-30 11:01:56.440 ,4,1,0.,24.0,0.,24.0
1981-08-30 11:02:20.440 ,4,0,0.,24.0,0.,24.0
1981-08-30 11:02:44.440 ,5,1,0.,24.0,0.,24.0
1981-08-30 11:03:08.440 ,5,0,0.,24.0,0.,24.0
1981-08-30 11:03:32.440 ,6,1,0.,24.0,0.,24.0
1981-08-30 11:03:56.440 ,6,0,0.,24.0,0.,24.0
1981-08-30 11:04:20.440 ,7,1,0.,24.0,0.,24.0
1981-08-30 11:04:44.440 ,7,0,0.,24.0,0.,24.0
1981-08-30 11:05:08.440 ,7,1,0.,24.0,0.,24.0
1981-08-30 11:05:32.440 ,7,0,0.,24.0,0.,24.0
1981-08-30 11:05:56.440 ,6,1,0.,24.0,0.,24.0
1981-08-30 11:06:20.440 ,6,0,0.,24.0,0.,24.0
1981-08-30 11:06:44.440 ,5,1,0.,24.0,0.,24.0
1981-08-30 11:07:08.440 ,5,0,0.,24.0,0.,24.0
1981-08-30 11:07:32.440 ,4,1,0.,24.0,0.,24.0
1981-08-30 11:07:56.440 ,4,0,0.,24.0,0.,24.0
1981-08-30 11:08:20.440 ,3,1,0.,24.0,0.,24.0
1981-08-30 11:08:44.440 ,3,0,0.,24.0,0.,24.0
1981-08-30 11:09:08.440 ,2,1,0.,24.0,0.,24.0
1981-08-30 11:09:32.440 ,2,0,0.,24.0,0.,24.0
1981-08-30 11:09:56.440 ,1,1,0.,24.0,0.,24.0
1981-08-30 11:10:20.440 ,1,0,0.,24.0,0.,24.0
1981-08-30 11:10:44.440 ,0,1,0.,24.0,0.,24.0
1981-08-30 11:11:08.440 ,0,0,0.,24.0,0.,24.0
1981-08-30 11:11:32.440 ,0,1,0.,24.0,0.,24.0
1981-08-30 11:11:56.440 ,0,0,0.,24.0,0.,24.0
1981-08-30 11:12:20.440 ,1,1,0.,24.0,0.,24.0
1981-08-30 11:12:44.440 ,1,0,0.,24.0,0.,24.0
1981-08-30 11:13:08.440 ,2,1,0.,24.0,0.,24.0
1981-08-30 11:13:32.440 ,2,0,0.,24.0,0.,24.0
1981-08-30 11:13:56.440 ,3,1,0.,24.0,0.,24.0
1981-08-30 11:14:20.440 ,4,1,0.,24.0,0.,24.0
1981-08-30 11:14:44.440 ,5,1,0.,24.0,0.,24.0
1981-08-30 11:15:08.440 ,6,1,0.,24.0,0.,24.0
1981-08-30 11:15:32.440 ,7,1,0.,24.0,0.,24.0
1981-08-30 11:15:56.440 ,7,1,0.,24.0,0.,24.0
1981-08-30 11:16:20.440 ,6,1,0.,24.0,0.,24.0
1981-08-30 11:16:44.440 ,5,1,0.,24.0,0.,24.0
1981-08-30 11:17:08.440 ,4,1,0.,24.0,0.,24.0
1981-08-30 11:17:32.440 ,3,1,0.,24.0,0.,24.0
1981-08-30 11:17:56.440 ,2,1,0.,24.0,0.,24.0
1981-08-30 11:18:20.440 ,1,1,0.,24.0,0.,24.0
1981-08-30 11:18:44.440 ,0,1,0.,24.0,0.,24.0
1981-08-30 11:19:08.440 ,0,1,0.,24.0,0.,24.0
1981-08-30 11:19:32.440 ,1,1,0.,24.0,0.,24.0
1981-08-30 11:19:56.440 ,2,1,0.,24.0,0.,24.0
1981-08-30 11:20:20.440 ,3,1,0.,24.0,0.,24.0
1981-08-30 11:20:44.440 ,3,0,0.,24.0,0.,24.0
1981-08-30 11:21:08.440 ,4,1,0.,24.0,0.,24.0
1981-08-30 11:21:32.440 ,4,0,0.,24.0,0.,24.0
1981-08-30 11:21:56.440 ,5,1,0.,24.0,0.,24.0
1981-08-30 11:22:20.440 ,5,0,0.,24.0,0.,24.0
1981-08-30 11:22:44.440 ,6,1,0.,24.0,0.,24.0
1981-08-30 11:23:08.440 ,6,0,0.,24.0,0.,24.0
1981-08-30 11:23:32.440 ,7,1,0.,24.0,0.,24.0
1981-08-30 11:23:56.440 ,7,0,0.,24.0,0.,24.0
1981-08-30 11:24:20.440 ,7,1,0.,24.0,0.,24.0
1981-08-30 11:24:44.440 ,7,0,0.,24.0,0.,24.0
1981-08-30 11:25:08.440 ,6,1,0.,24.0,0.,24.0
1981-08-30 11:25:32.440 ,6,0,0.,24.0,0.,24.0
1981-08-30 11:25:56.440 ,5,1,0.,24.0,0.,24.0
1981-08-30 11:26:20.440 ,5,0,0.,24.0,0.,24.0
1981-08-30 11:26:44.440 ,4,1,0.,24.0,0.,24.0
1981-08-30 11:27:08.440 ,4,0,0.,24.0,0.,24.0
1981-08-30 11:27:32.440 ,3,1,0.,24.0,0.,24.0
1981-08-30 11:27:56.440 ,3,0,0.,24.0,0.,24.0
1981-08-30 11:28:20.440 ,2,1,0.,24.0,0.,24.0
1981-08-30 11:28:44.440 ,2,0,0.,24.0,0.,24.0
1981-08-30 11:29:08.440 ,1,1,0.,24.0,0.,24.0
1981-08-30 11:29:32.440 ,1,0,0.,24.0,0.,24.0
1981-08-30 11:29:56.440 ,0,1,0.,24.0,0.,24.0
1981-08-30 11:30:20.440 ,0,0,0.,24.0,0.,24.0
1981-08-30 11:30:44.440 ,0,1,0.,24.0,0.,24.0
1981-08-30 11:31:08.440 ,0,0,0.,24.0,0.,24.0
1981-08-30 11:31:32.440 ,1,1,0.,24.0,0.,24.0
1981-08-30 11:31:56.440 ,1,0,0.,24.0,0.,24.0
1981-08-30 11:32:20.440 ,2,1,0.,24.0,0.,24.0
1981-08-30 11:32:44.440 ,2,0,0.,24.0,0.,24.0
1981-08-30 11:33:08.440 ,3,1,0.,24.0,0.,24.0
1981-08-30 11:33:32.440 ,4,1,0.,24.0,0.,24.0
1981-08-30 11:33:56.440 ,5,1,0.,24.0,0.,24.0
1981-08-30 11:34:20.440 ,6,1,0.,24.0,0.,24.0
1981-08-30 11:34:44.440 ,7,1,0.,24.0,0.,24.0
1981-08-30 11:35:08.440 ,7,1,0.,24.0,0.,24.0
1981-08-30 11:35:32.440 ,6,1,0.,24.0,0.,24.0
1981-08-30 11:35:56.440 ,5,1,0.,24.0,0.,24.0
1981-08-30 11:36:20.440 ,4,1,0.,24.0,0.,24.0
1981-08-30 11:36:44.440 ,3,1,0.,24.0,0.,24.0
1981-08-30 11:37:08.440 ,2,1,0.,24.0,0.,24.0
1981-08-30 11:37:32.440 ,1,1,0.,24.0,0.,24.0
1981-08-30 11:37:56.440 ,0,1,0.,24.0,0.,24.0
1981-08-30 11:38:20.440 ,0,1,0.,24.0,0.,24.0
1981-08-30 11:38:44.440 ,1,1,0.,24.0,0.,24.0
1981-08-30 11:39:08.440 ,2,1,0.,24.0,0.,24.0
1981-08-30 11:39:32.440 ,3,1,0.,24.0,0.,24.0
1981-08-30 11:39:56.440 ,3,0,0.,24.0,0.,24.0
1981-08-30 11:40:20.440 ,4,1,0.,24.0,0.,24.0
1981-08-30 11:40:44.440 ,4,0,0.,24.0,0.,24.0
1981-08-30 11:41:08.440 ,5,1,0.,24.0,0.,24.0
1981-08-30 11:41:32.440 ,5,0,0.,24.0,0.,24.0
1981-08-30 11:41:56.440 ,6,1,0.,24.0,0.,24.0
1981-08-30 11:42:20.440 ,6,0,0.,24.0,0.,24.0
1981-08-30 11:42:44.440 ,7,1,0.,24.0,0.,24.0
1981-08-30 11:43:08.440 ,7,0,0.,24.0,0.,24.0
1981-08-30 11:43:32.440 ,7,1,0.,24.0,0.,24.0
1981-08-30 11:43:56.440 ,7,0,0.,24.0,0.,24.0
1981-08-30 11:44:20.440 ,6,1,0.,24.0,0.,24.0
1981-08-30 11:44:44.440 ,6,0,0.,24.0,0.,24.0
1981-08-30 11:45:08.440 ,5,1,0.,24.0,0.,24.0
1981-08-30 11:45:32.440 ,5,0,0.,24.0,0.,24.0
1981-08-30 11:45:56.440 ,4,1,0.,24.0,0.,24.0
1981-08-30 11:46:20.440 ,4,0,0.,24.0,0.,24.0
1981-08-30 11:46:44.440 ,3,1,0.,24.0,0.,24.0
1981-08-30 11:47:08.440 ,3,0,0.,24.0,0.,24.0
1981-08-30 11:47:32.440 ,2,1,0.,24.0,0.,24.0
1981-08-30 11:47:56.440 ,2,0,0.,24.0,0.,24.0
1981-08-30 11:48:20.440 ,1,1,0.,24.0,0.,24.0
1981-08-30 11:48:44.440 ,1,0,0.,24.0,0.,24.0
1981-08-30 11:49:08.440 ,0,1,0.,24.0,0.,24.0
1981-08-30 11:49:32.440 ,0,0,0.,24.0,0.,24.0
1981-08-30 11:49:56.440 ,0,1,0.,24.0,0.,24.0
1981-08-30 11:50:20.440 ,0,0,0.,24.0,0.,24.0
1981-08-30 11:50:44.440 ,1,1,0.,24.0,0.,24.0
1981-08-30 11:51:08.440 ,1,0,0.,24.0,0.,24.0
1981-08-30 11:51:32.440 ,2,1,0.,24.0,0.,24.0
1981-08-30 11:51:56.440 ,2,0,0.,24.0,0.,24.0
1981-08-30 11:52:20.440 ,3,1,0.,24.0,0.,24.0
1981-08-30 11:52:44.440 ,4,1,0.,24.0,0.,24.0
1981-08-30 11:53:08.440 ,5,1,0.,24.0,0.,24.0
1981-08-30 11:53:32.440 ,6,1,0.,24.0,0.,24.0
1981-08-30 11:53:56.440 ,7,1,0.,24.0,0.,24.0
1981-08-30 11:54:20.440 ,7,1,0.,24.0,0.,24.0
1981-08-30 11:54:44.440 ,6,1,0.,24.0,0.,24.0
1981-08-30 11:55:08.440 ,5,1,0.,24.0,0.,24.0
1981-08-30 11:55:32.440 ,4,1,0.,24.0,0.,24.0
1981-08-30 11:55:56.440 ,3,1,0.,24.0,0.,24.0
1981-08-30 11:56:20.440 ,2,1,0.,24.0,0.,24.0
1981-08-30 11:56:44.440 ,1,1,0.,24.0,0.,24.0
1981-08-30 11:57:08.440 ,0,1,0.,24.0,0.,24.0
1981-08-30 11:57:32.440 ,0,1,0.,24.0,0.,24.0
1981-08-30 11:57:56.440 ,1,1,0.,24.0,0.,24.0
1981-08-30 11:58:20.440 ,2,1,0.,24.0,0.,24.0
1981-08-30 11:58:44.440 ,3,1,0.,24.0,0.,24.0
1981-08-30 11:59:08.440 ,3,0,0.,24.0,0.,24.0
1981-08-30 11:59:32.440 ,4,1,0.,24.0,0.,24.0
1981-08-30 11:59:56.440 ,4,0,0.,24.0,0.,24.0
1981-08-30 12:00:20.440 ,5,1,0.,24.0,0.,24.0
